Starlink 11109

operational
NORAD ID: 60306 Int'l Des: 2024-133 Owner: SPXS Country: US Constellation: starlink
LEOCIRCULAR

Über Starlink 11109

Beschreibung wird geladen...

Live-Position

3D-Globus wird geladen...

Nächste Überflüge

Höhenverlauf

Altitude vs Time

uPlot chart will show altitude changes over time

Zweizeiliger Elementsatz

1 60306U 24133F 25352.94834338 -.00003956 00000-0 -27829-4 0 9994
2 60306 53.1586 184.1840 0000921 107.2033 252.9086 15.69695719 81053
Epoch: 18. Dez. 2025 • Age: 4 hours

Aktueller Status

Höhe 367.7 km
Geschwindigkeit 7.69 km/s
Subsatellitenpunkt -25.40°S, 26.46°E
Startdatum 28. Juli 2024
Alter 1.3 years
Typ internet

Technische Details

Klassifizierung Payload
Masse 960.00 kg
Trockenmasse 910.00 kg
Gesamtmasse 960.00 kg
Länge 0.30 m
Durchmesser 4.10 m
Spannweite 29.00 m
Form Box + pan
Hersteller SPXS
Bus-Typ Starlink V2MD
Phasenstatus In Orbit
Besitzer/Staat SPXS/US

Große Konstellationen

Loading constellations...